When you browse on this site, cookies collect data to enhance your experience and personalize the content and advertising you see.
Visit our Privacy Policy to learn more. By continuing to use the site, you agree to this use of cookies and data.
  • In Switzerland
  • List of Countries
  • For 7 days
  • Water Temperature
  • Satellite Maps
  • Weather Map
  • Weather Widgets
  • user-avatar
    Login

    Hourly Weather Eisenach

    Today, 18 July, Thursday

    Time Temperature Precipitation Wind Pressure Humidity
    00:00 +13°C° 0 mm 0 mps 739 mmHg 88%
    01:00 +13°C° 0 mm 0 mps 739 mmHg 89%
    02:00 +12°C° 0 mm 0 mps 739 mmHg 90%
    03:00 +12°C° 0 mm 0 mps 739 mmHg 91%
    04:00 +11°C° 0 mm 0 mps 738 mmHg 92%
    05:00 +13°C° 0 mm 0 mps 738 mmHg 88%
    06:00 +14°C° 0 mm 0 mps 738 mmHg 84%
    07:00 +16°C° 0 mm 0 mps 738 mmHg 80%
    08:00 +18°C° 0 mm 0 mps 739 mmHg 73%
    09:00 +21°C° 0 mm 1 mps 739 mmHg 66%
    10:00 +23°C° 0 mm 1 mps 739 mmHg 59%
    11:00 +24°C° 0 mm 2 mps 739 mmHg 55%
    12:00 +24°C° 0 mm 2 mps 738 mmHg 50%
    13:00 +25°C° 0 mm 3 mps 738 mmHg 46%
    14:00 +26°C° 0 mm 3 mps 738 mmHg 45%
    15:00 +26°C° 0 mm 3 mps 738 mmHg 44%
    16:00 +26°C° 0 mm 3 mps 738 mmHg 43%
    17:00 +25°C° 0 mm 2 mps 738 mmHg 50%
    18:00 +24°C° 0 mm 2 mps 738 mmHg 57%
    19:00 +23°C° 0 mm 1 mps 738 mmHg 64%
    20:00 +22°C° 0.1 mm 1 mps 738 mmHg 70%
    21:00 +20°C° 0.1 mm 1 mps 738 mmHg 77%
    22:00 +19°C° 0.1 mm 1 mps 739 mmHg 84%
    23:00 +18°C° 0.1 mm 1 mps 739 mmHg 86%

    Tomorrow, 19 July, Friday

    Time Temperature Precipitation Wind Pressure Humidity
    00:00 +16°C° 0.1 mm 1 mps 739 mmHg 88%
    01:00 +16°C° 0.1 mm 1 mps 739 mmHg 90%
    02:00 +16°C° 0 mm 1 mps 739 mmHg 90%
    03:00 +15°C° 0 mm 1 mps 739 mmHg 91%
    04:00 +15°C° 0 mm 1 mps 739 mmHg 92%
    05:00 +16°C° 0 mm 1 mps 739 mmHg 89%
    06:00 +18°C° 0 mm 1 mps 739 mmHg 87%
    07:00 +19°C° 0 mm 1 mps 740 mmHg 84%
    08:00 +20°C° 0 mm 2 mps 740 mmHg 77%
    09:00 +21°C° 0 mm 2 mps 740 mmHg 71%
    10:00 +22°C° 0 mm 3 mps 740 mmHg 64%
    11:00 +24°C° 0.3 mm 3 mps 740 mmHg 64%
    12:00 +25°C° 0.3 mm 4 mps 740 mmHg 63%
    13:00 +25°C° 0.3 mm 4 mps 740 mmHg 63%
    14:00 +25°C° 0.6 mm 4 mps 740 mmHg 66%
    15:00 +25°C° 0.6 mm 3 mps 740 mmHg 68%
    16:00 +25°C° 0.6 mm 3 mps 740 mmHg 71%
    17:00 +24°C° 0.5 mm 2 mps 740 mmHg 75%
    18:00 +23°C° 0.5 mm 2 mps 740 mmHg 79%
    19:00 +23°C° 0.5 mm 1 mps 740 mmHg 83%
    20:00 +21°C° 0 mm 1 mps 740 mmHg 85%
    21:00 +20°C° 0 mm 1 mps 740 mmHg 87%
    22:00 +19°C° 0 mm 1 mps 740 mmHg 89%
    23:00 +18°C° 0 mm 1 mps 740 mmHg 90%

    Day after tomorrow, 20 July, Saturday

    Time Temperature Precipitation Wind Pressure Humidity
    00:00 +18°C° 0 mm 1 mps 740 mmHg 91%
    01:00 +18°C° 0 mm 1 mps 740 mmHg 92%
    02:00 +16°C° 0 mm 1 mps 740 mmHg 92%
    03:00 +16°C° 0 mm 1 mps 740 mmHg 93%
    04:00 +16°C° 0 mm 1 mps 740 mmHg 93%
    05:00 +18°C° 0 mm 1 mps 740 mmHg 91%
    06:00 +19°C° 0 mm 1 mps 740 mmHg 89%
    07:00 +20°C° 0 mm 1 mps 740 mmHg 86%
    08:00 +21°C° 0 mm 2 mps 740 mmHg 78%
    09:00 +24°C° 0 mm 3 mps 740 mmHg 70%
    10:00 +26°C° 0 mm 4 mps 741 mmHg 61%
    11:00 +26°C° 0.5 mm 4 mps 740 mmHg 63%
    12:00 +26°C° 0.5 mm 4 mps 740 mmHg 66%
    13:00 +27°C° 0.5 mm 4 mps 740 mmHg 68%
    14:00 +27°C° 0.7 mm 4 mps 740 mmHg 67%
    15:00 +27°C° 0.7 mm 4 mps 740 mmHg 66%
    16:00 +27°C° 0.7 mm 3 mps 740 mmHg 65%
    17:00 +26°C° 0.2 mm 3 mps 740 mmHg 69%
    18:00 +25°C° 0.2 mm 2 mps 740 mmHg 72%
    19:00 +25°C° 0.2 mm 1 mps 740 mmHg 76%
    20:00 +24°C° 0.6 mm 1 mps 740 mmHg 79%
    21:00 +22°C° 0.6 mm 1 mps 740 mmHg 83%
    22:00 +21°C° 0.6 mm 1 mps 741 mmHg 87%
    23:00 +19°C° 0.7 mm 2 mps 741 mmHg 89%

    21 July, Sunday

    Time Temperature Precipitation Wind Pressure Humidity
    00:00 +19°C° 0.7 mm 2 mps 741 mmHg 90%
    01:00 +18°C° 0.7 mm 2 mps 741 mmHg 92%
    02:00 +18°C° 0 mm 2 mps 741 mmHg 93%
    03:00 +18°C° 0 mm 2 mps 741 mmHg 93%
    04:00 +17°C° 0 mm 2 mps 741 mmHg 93%
    05:00 +18°C° 0 mm 2 mps 742 mmHg 92%
    06:00 +19°C° 0 mm 3 mps 742 mmHg 90%
    07:00 +19°C° 0 mm 4 mps 742 mmHg 89%
    08:00 +21°C° 0 mm 4 mps 743 mmHg 79%
    09:00 +22°C° 0 mm 4 mps 743 mmHg 69%
    10:00 +23°C° 0 mm 5 mps 744 mmHg 59%
    11:00 +25°C° 0 mm 5 mps 744 mmHg 55%
    12:00 +26°C° 0 mm 4 mps 744 mmHg 52%
    13:00 +27°C° 0 mm 4 mps 744 mmHg 49%
    14:00 +27°C° 0 mm 4 mps 744 mmHg 49%
    15:00 +27°C° 0 mm 4 mps 744 mmHg 50%
    16:00 +27°C° 0 mm 3 mps 744 mmHg 50%
    17:00 +26°C° 0 mm 3 mps 745 mmHg 57%
    18:00 +25°C° 0 mm 2 mps 745 mmHg 63%
    19:00 +24°C° 0 mm 2 mps 745 mmHg 70%
    20:00 +22°C° 0 mm 1 mps 745 mmHg 76%
    21:00 +21°C° 0 mm 1 mps 746 mmHg 82%
    22:00 +19°C° 0 mm 1 mps 746 mmHg 88%
    23:00 +16°C° 0 mm 0 mps 746 mmHg 89%

    22 July, Monday

    Time Temperature Precipitation Wind Pressure Humidity
    00:00 +16°C° 0 mm 0 mps 746 mmHg 90%
    01:00 +15°C° 0 mm 0 mps 746 mmHg 90%
    02:00 +15°C° 0 mm 0 mps 746 mmHg 91%
    03:00 +15°C° 0 mm 0 mps 746 mmHg 91%
    04:00 +14°C° 0 mm 0 mps 746 mmHg 92%
    05:00 +16°C° 0 mm 0 mps 746 mmHg 88%
    06:00 +17°C° 0 mm 0 mps 747 mmHg 84%
    07:00 +19°C° 0 mm 0 mps 747 mmHg 81%
    08:00 +22°C° 0 mm 1 mps 747 mmHg 74%
    09:00 +24°C° 0 mm 1 mps 747 mmHg 67%
    10:00 +26°C° 0 mm 1 mps 747 mmHg 60%
    11:00 +27°C° 0 mm 1 mps 747 mmHg 55%
    12:00 +28°C° 0 mm 1 mps 747 mmHg 50%
    13:00 +29°C° 0 mm 1 mps 747 mmHg 45%
    14:00 +29°C° 0 mm 1 mps 746 mmHg 45%
    15:00 +29°C° 0 mm 2 mps 746 mmHg 45%
    16:00 +29°C° 0 mm 2 mps 746 mmHg 45%
    17:00 +28°C° 0 mm 2 mps 746 mmHg 52%
    18:00 +27°C° 0 mm 3 mps 746 mmHg 58%
    19:00 +25°C° 0 mm 3 mps 745 mmHg 65%
    20:00 +24°C° 0 mm 3 mps 746 mmHg 69%
    21:00 +21°C° 0 mm 3 mps 746 mmHg 73%
    22:00 +20°C° 0 mm 3 mps 746 mmHg 77%
    23:00 +19°C° 0 mm 2 mps 746 mmHg 79%

    23 July, Tuesday

    Time Temperature Precipitation Wind Pressure Humidity
    00:00 +18°C° 0 mm 2 mps 746 mmHg 81%
    01:00 +17°C° 0 mm 2 mps 746 mmHg 83%
    02:00 +17°C° 0 mm 2 mps 746 mmHg 85%
    03:00 +18°C° 0 mm 1 mps 745 mmHg 87%
    04:00 +16°C° 0 mm 1 mps 745 mmHg 89%
    05:00 +18°C° 0 mm 1 mps 745 mmHg 84%
    06:00 +19°C° 0 mm 2 mps 745 mmHg 80%
    07:00 +20°C° 0 mm 2 mps 745 mmHg 76%
    08:00 +23°C° 0 mm 2 mps 745 mmHg 70%
    09:00 +25°C° 0 mm 3 mps 745 mmHg 64%
    10:00 +27°C° 0 mm 4 mps 745 mmHg 58%
    11:00 +28°C° 0 mm 4 mps 745 mmHg 54%
    12:00 +29°C° 0 mm 4 mps 745 mmHg 51%
    13:00 +30°C° 0 mm 4 mps 745 mmHg 47%
    14:00 +30°C° 0 mm 4 mps 744 mmHg 46%
    15:00 +30°C° 0 mm 4 mps 744 mmHg 45%
    16:00 +30°C° 0 mm 5 mps 743 mmHg 45%
    17:00 +28°C° 0 mm 4 mps 743 mmHg 48%
    18:00 +27°C° 0 mm 4 mps 743 mmHg 52%
    19:00 +26°C° 0 mm 4 mps 743 mmHg 56%
    20:00 +23°C° 0 mm 4 mps 743 mmHg 57%
    21:00 +21°C° 0 mm 3 mps 743 mmHg 58%
    22:00 +19°C° 0 mm 2 mps 743 mmHg 59%
    23:00 +19°C° 0 mm 2 mps 743 mmHg 61%
    Show more